DELTA 1 DEB, 40762

Orbit data source: Space-Track

DELTA 1 DEB, 40762 is space debris in LEO originally from a launch on Thu, 29 Jul 1976 UTC launched from the Air Force Western Test Range (AFWTR). Debris objects in space refer to the collection of defunct objects orbiting the Earth. Examples of debris include non-operational satellites, rocket bodies, and fragments generated from explosions, collisions, or faulty payload assembly.

Loading next visibility...
Identifier
40762, 1976-077GF
Orbit
LEO
Country
Flag of USUS
Related business
Manufacturer
Unknown
Mission
Spacecraft
Bus & Motor
Unknown
Mass
Unknown
Launch date (UTC)
1976-07-29 (50 years ago)
Launch vehicle
Unknown
Launch site
Air Force Western Test Range (AFWTR)
Object type
Payload
Rocket body
Debris
Shape & HBR
Unknown shape, 1.1 m
Radar Cross Section
Medium (>0.1 m² and <1 m²)

Expand to show TLE details & history
Last TLE update: 9 hours ago

TLE from 9 hours ago
0 DELTA 1 DEB
1 40762U 76077GF  26171.24295040 -.00000066  00000-0 -35261-3 0  9993
2 40762 102.3702 285.5232 0326879  30.8285 331.1505 11.83422071540404
Epoch: 2026-06-20T05:49Z
TLE epoch observation values (Epoch: 2026-06-20T05:49:50.914Z)
Latitude
0.00001°
Longitude
-70.39932°
Altitude
1,527.599 km
Speed
7.202 km/s
True Right ascension
19h 02m 05s
True Declination
0° 00' 00"
Sunlit
Object was in full shadow at epoch
Visualization orbit readout
Latitude
Unknown
Longitude
Unknown
Altitude
Unknown
Speed
Unknown
Apparent Right ascension
Unknown
Apparent Declination
Unknown
Sunlit
N/A
Visualization observer readout
Local Sidereal Time
01:22:31
Azimuth
Unknown
Elevation
Unknown
Doppler factor
Unknown
Orbital elements
Apogee altitude
2,019.426 km
Perigee altitude
1,487.806 km
Semi-major axis
8,131.753 km
Eccentricity
0.03269
Inclination
102.3702°
RAAN
285.5232°
Arg. of periapsis
30.8285°
True anomaly
329.27649°
Mean anomaly
331.1505°
Eccentric anomaly
330.2203°
Mean motion
2.95983 °/min
Orbital period
121.63 mins
BSTAR
-0.00035261
Loading maneuver chart data...
Computing Atmospheric mass density...
Loading historical data...
Loading historical data...
Loading historical data...
Loading historical data...
Loading historical data...
Loading historical data...
Loading historical data...

Documentation

Showing up to 5 results
|